Change the Weather History Date:

Friday, July 4, 2014

  Actual Average Record
Temperature  
Mean Temperature 77 °F 79 °F  
Max Temperature 87 °F 90 °F 100 °F (2002)
Min Temperature 66 °F 69 °F 52 °F (1933)
Degree Days  
Heating Degree Days 0 0  
Month to date heating degree days 0 0  
Since 1 June heating degree days 0 7  
Since 1 July heating degree days 0 0  
Cooling Degree Days 12 14  
Month to date cooling degree days 74 56  
Year to date cooling degree days 637 532  
Since 1 June cooling degree days 429 371  
Growing Degree Days 28 (Base 50)    
Moisture  
Dew Point 57 °F    
Average Humidity 55    
Maximum Humidity 84    
Minimum Humidity 25    
Precipitation  
Precipitation 0.03 in 0.12 in 1.57 in (1981)
Month to date precipitation 0.04 0.51  
Year to date precipitation 19.47 21.33  
Snow  
Snow 0.00 in 0.00 in 0.00 in (2002)
Month to date snowfall 0.0 0.0  
Since 1 July snowfall 0.0 0.0  
Snow Depth 0.00 in    
Sea Level Pressure  
Sea Level Pressure 30.01 in    
Wind  
Wind Speed 16 mph (NNW)    
Max Wind Speed 26 mph    
Max Gust Speed 33 mph    
Visibility 10 miles    
Events      
T = Trace of Precipitation, MM = Missing Value Source: NWS Daily Summary

Daily Weather History Graph

Daily Weather History Graph

Search for Another Location

Airport or City:

Trip Planner

Search our weather history database for the weather conditions in past years. The results will help you decide how hot, cold, wet, or windy it might be!

Date:

Astronomy

Jul. 04, 2014 Rise Set
Actual Time 5:53 AM EDT 8:33 PM EDT
Civil Twilight 5:22 AM EDT 9:04 PM EDT
Nautical Twilight 4:43 AM EDT 9:43 PM EDT
Astronomical Twilight 4:00 AM EDT 10:26 PM EDT
Moon 12:38 PM EDT (7/4) 12:03 AM EDT (7/4)
Length of Visible Light 15h 42m
Length of Day
14h 40m
Waxing Crescent, 42% of the Moon is Illuminated
Jul 4
Waxing Crescent
Jul 5
First Quarter
Jul 12
Full
Jul 18
Last Quarter
Jul 26
New

Hourly Weather History & Observations

Time (EDT) Temp. Heat Index Dew Point Humidity Pressure Visibility Wind Dir Wind Speed Gust Speed Precip Events Conditions
12:45 AM 78.8 °F - 68.0 °F 69% 29.93 in 10.0 mi NNE 10.4 mph - N/A   Mostly Cloudy
12:54 AM 78.1 °F - 68.0 °F 71% 29.93 in 10.0 mi NNE 11.5 mph - N/A   Mostly Cloudy
1:54 AM 78.1 °F - 66.9 °F 68% 29.91 in 10.0 mi North 11.5 mph - 0.00 in   Overcast
2:54 AM 75.0 °F - 69.1 °F 82% 29.90 in 10.0 mi North 16.1 mph 24.2 mph 0.03 in   Overcast
3:54 AM 75.0 °F - 70.0 °F 84% 29.88 in 10.0 mi North 15.0 mph 26.5 mph N/A   Overcast
4:54 AM 75.0 °F - 70.0 °F 84% 29.88 in 10.0 mi North 19.6 mph 33.4 mph N/A   Overcast
5:54 AM 73.9 °F - 68.0 °F 82% 29.89 in 10.0 mi North 18.4 mph 31.1 mph N/A   Overcast
6:54 AM 73.0 °F - 64.0 °F 73% 29.93 in 10.0 mi North 23.0 mph 33.4 mph N/A   Mostly Cloudy
7:54 AM 72.0 °F - 61.0 °F 68% 29.96 in 10.0 mi NNW 18.4 mph 27.6 mph N/A   Mostly Cloudy
8:54 AM 73.9 °F - 60.1 °F 62% 29.98 in 10.0 mi NNW 24.2 mph 31.1 mph N/A   Mostly Cloudy
9:54 AM 75.9 °F - 57.9 °F 54% 30.00 in 10.0 mi North 19.6 mph 33.4 mph N/A   Scattered Clouds
10:54 AM 79.0 °F - 57.0 °F 47% 30.01 in 10.0 mi NNW 26.5 mph 32.2 mph N/A   Scattered Clouds
11:54 AM 81.0 °F 80.8 °F 55.9 °F 42% 30.02 in 10.0 mi NNW 21.9 mph 28.8 mph N/A   Partly Cloudy
12:54 PM 84.0 °F 82.9 °F 55.0 °F 37% 30.02 in 10.0 mi NNW 20.7 mph 27.6 mph N/A   Scattered Clouds
1:54 PM 84.9 °F - 51.1 °F 31% 30.02 in 10.0 mi NW 19.6 mph 29.9 mph N/A   Scattered Clouds
2:54 PM 84.9 °F - 44.1 °F 24% 30.04 in 10.0 mi NNW 18.4 mph 28.8 mph N/A   Scattered Clouds
3:54 PM 86.0 °F - 46.0 °F 25% 30.05 in 10.0 mi NNW 15.0 mph - N/A   Scattered Clouds
4:54 PM 84.9 °F - 46.0 °F 26% 30.06 in 10.0 mi NNW 17.3 mph 25.3 mph N/A   Scattered Clouds
5:54 PM 84.0 °F - 46.9 °F 27% 30.07 in 10.0 mi North 13.8 mph 25.3 mph N/A   Scattered Clouds
6:54 PM 82.9 °F - 48.0 °F 29% 30.10 in 10.0 mi NW 12.7 mph 19.6 mph N/A   Scattered Clouds
7:54 PM 80.1 °F - 48.9 °F 34% 30.12 in 10.0 mi North 11.5 mph - N/A   Scattered Clouds
8:54 PM 75.9 °F - 48.0 °F 37% 30.14 in 10.0 mi North 8.1 mph - N/A   Scattered Clouds
9:54 PM 73.0 °F - 48.0 °F 41% 30.17 in 10.0 mi North 6.9 mph - N/A   Scattered Clouds
10:54 PM 70.0 °F - 48.9 °F 47% 30.19 in 10.0 mi North 4.6 mph - N/A   Partly Cloudy
11:54 PM 68.0 °F - 50.0 °F 52% 30.20 in 10.0 mi NNW 4.6 mph - N/A   Clear